Погода в Полдневом

Россия / Астраханская область     45°51′06″N   47°57′21″E
темп.,
°C
ветер,
м/с
пор.,
м/с
влажн.,
%
обл.,
%
осадки,
мм/ч
давл.,
гПа
погр.,
м
19 апреля, пн
пн1901:00+13ююз11705 0.0 101711
04:00+13всв227131 0.0 101614
07:00+14с007094 0.0 101733
10:00+17юз3257100 0.0 1017651
13:00+17ююз4455100 0.0 1017504
16:00+16ююз5557100 0.0 1016411
19:00+14ю4464100 0.0 1015134
22:00+13ссв1179100 1.1 101767
20 апреля, вт
вт2001:00+14вюв2383100 0.1 1016101
04:00+13вюв3591100 0.2 1015103
07:00+13вюв4884100 0.0 1015199
10:00+16вюв71067100 0.0 1015464
13:00+17вюв91261100 0.0 1014565
16:00+18вюв101555100 0.0 1012667
19:00+16в91767100 0.0 1011533
22:00+16вюв81968100 0.1 1011498
21 апреля, ср
ср2101:00+16вюв101964100 0.1 1012478
04:00+15вюв91765100 0.1 1012397
07:00+14юв81572100 0.1 1014457
10:00+13в71080100 2.2 1016531
13:00+13в71076100 1.1 1017498
16:00+16всв6759100 1.1 1016860
19:00+15св586988 0.0 1017538
22:00+13ссв5780100 1.1 1018395
22 апреля, чт
чт2201:00+12с6878100 0.9 1018337
04:00+12с7107685 1.0 1018315
07:00+13ссв6106787 0.1 1018443
10:00+15ссв6757100 0.1 1019570
13:00+17ссв456154 0.1 1019898
16:00+17ссв6646100 0.1 1020899
19:00+15с6752100 0.0 1021547
22:00+12с5860100 0.0 1021326
23 апреля, пт
пт2301:00+11с5858100 0.0 1021320
04:00+10ссз5961100 0.0 1020335
07:00+10ссз4863100 0.0 1021320
10:00+13ссз684858 0.0 1020686
13:00+16сз784214 0.0 1020891
16:00+18сз78395 0.0 10191083
19:00+16ссз68430 0.0 1019907
22:00+13сз48559 0.0 1020191